Regional Weather Roundup
Issued by NWS

Home | Current Version | Previous Version | Graphics & Text | Print | Product List | Glossary On
Versions: 1 2 3 4 5 6 7 8 9 10 11 12 13 14 15 16 17 18 19 20 21 22 23 24 25 26 27 28 29 30 31 32 33 34 35 36 37 38 39 40 41 42 43 44 45 46 47 48 49 50
000
ASUS43 KOAX 241210
RWRNE

WEATHER ROUNDUP FOR NEBRASKA
NATIONAL WEATHER SERVICE OMAHA NE
600 AM CST FRI NOV 24 2017

NOTES: SATELLITE DATA IS BEING USED TO AUGMENT CLOUD COVER ABOVE
       12000 FEET.
       "FAIR" INDICATES FEW OR NO CLOUDS BELOW 12,000 FEET WITH NO
       SIGNIFICANT WEATHER AND/OR OBSTRUCTIONS TO VISIBILITY.


NEZ001>004-019>022-054>056-241300-
NEBRASKA PANHANDLE

CITY           SKY/WX    TMP DP  RH WIND       PRES   REMARKS
SCOTTSBLUFF    CLOUDY    57  34  41 W13       29.71S
6HR MIN TEMP:  51; 6HR MAX TEMP:  66;

ALLIANCE       CLOUDY    55  36  48 W17       29.67S
6HR MIN TEMP:  39; 6HR MAX TEMP:  56;

CHADRON        CLEAR     42  34  73 VRB5      29.62F
6HR MIN TEMP:  36; 6HR MAX TEMP:  57;

GORDON         FAIR      49  36  61 W9        29.61F
6HR MIN TEMP:  37; 6HR MAX TEMP:  50;

KIMBALL        CLOUDY    49  31  49 W12       29.79F
SIDNEY         CLOUDY    52  32  46 W14       29.77S
6HR MIN TEMP:  44; 6HR MAX TEMP:  60;

$$

NEZ057>060-069>072-079>082-241300-
SOUTHWEST NEBRASKA

CITY           SKY/WX    TMP DP  RH WIND       PRES   REMARKS
NORTH PLATTE   CLEAR     32  29  88 NW7       29.66F WCI  26
6HR MIN TEMP:  31; 6HR MAX TEMP:  41;

IMPERIAL       CLOUDY    50  30  46 W12       29.73S
6HR MIN TEMP:  43; 6HR MAX TEMP:  51;

LEXINGTON      CLOUDY    37  32  83 NW6       29.64F WCI  32
MCCOOK         CLOUDY    47  35  63 W12       29.69F
6HR MIN TEMP:  41; 6HR MAX TEMP:  52;

OGALLALA       CLOUDY    42  32  67 CALM      29.73R
$$

NEZ005>010-023>029-035>040-094-241300-
NORTH CENTRAL NEBRASKA

CITY           SKY/WX    TMP DP  RH WIND       PRES   REMARKS
VALENTINE      CLEAR     40  35  83 W9        29.54F WCI  34
6HR MIN TEMP:  39; 6HR MAX TEMP:  52;

AINSWORTH      CLEAR     47  38  71 W13       29.54F
BROKEN BOW     CLEAR     55  37  50 W16       29.60S
6HR MIN TEMP:  46; 6HR MAX TEMP:  55;

O`NEILL        CLEAR     48  40  73 W14       29.50F
ORD            CLEAR     45  37  73 CALM      29.56S
6HR MIN TEMP:  44; 6HR MAX TEMP:  54;

THEDFORD       CLEAR     48  37  65 NW6       29.61S
$$

NEZ041-046>049-061>064-073>077-083>087-241300-
SOUTH CENTRAL NEBRASKA

CITY           SKY/WX    TMP DP  RH WIND       PRES   REMARKS
GRAND ISLAND   CLEAR     48  38  68 W16       29.59F
6HR MIN TEMP:  48; 6HR MAX TEMP:  54;

AURORA         CLEAR     45  37  72 W10       29.59S
HASTINGS       CLEAR     48  35  60 SW9       29.62F
6HR MIN TEMP:  47; 6HR MAX TEMP:  54;

HEBRON         MOCLDY    51  40  65 SW8       29.63F
HOLDREGE       CLEAR     49  36  62 W13       29.65S
KEARNEY        CLEAR     49  35  58 W13       29.63S
YORK           PTCLDY    48  39  71 SW10      29.58F
$$

NEZ011>018-030>034-042>045-241300-
NORTHEAST NEBRASKA

CITY           SKY/WX    TMP DP  RH WIND       PRES   REMARKS
NORFOLK        CLEAR     39  36  89 SW7       29.50F WCI  34
6HR MIN TEMP:  38; 6HR MAX TEMP:  53;

ALBION         CLEAR     52  39  62 CALM      29.53F
BLAIR          CLEAR     52  41  65 S14       29.53F
COLUMBUS       CLEAR     47  39  74 SW9       29.55F
FREMONT        CLEAR     50  39  67 SW10      29.54F
TEKAMAH        CLEAR     44  37  76 S8        29.52F
6HR MIN TEMP:  43; 6HR MAX TEMP:  51;

WAYNE          CLEAR     38  36  91 CALM      29.49F
$$

NEZ050>053-065>068-078-088>093-241300-
SOUTHEAST NEBRASKA

CITY           SKY/WX    TMP DP  RH WIND       PRES   REMARKS
LINCOLN        CLEAR     49  39  68 S6        29.59F
6HR MIN TEMP:  49; 6HR MAX TEMP:  55;

OMAHA EPPLEY   CLEAR     46  38  73 SE9       29.55F
6HR MIN TEMP:  42; 6HR MAX TEMP:  47;

BEATRICE       CLEAR     48  39  70 S10       29.61F
FALLS CITY     CLEAR     51  36  56 S16       29.63F
6HR MIN TEMP:  51; 6HR MAX TEMP:  54;

NEBRASKA CITY  CLEAR     53  40  60 SW16      29.59F
PLATTSMOUTH    CLEAR     52  40  64 S13       29.57F
$$

NEZ044-045-051>053-067-241300-
OMAHA AREA

CITY           SKY/WX    TMP DP  RH WIND       PRES   REMARKS
OMAHA EPPLEY   CLEAR     46  38  73 SE9       29.55F
6HR MIN TEMP:  42; 6HR MAX TEMP:  47;

BLAIR          CLEAR     52  41  65 S14       29.53F
FREMONT        CLEAR     50  39  67 SW10      29.54F
MILLARD        CLEAR     53  41  65 S3        29.55F
OFFUTT AFB     CLEAR     45  38  74 SE6       29.55F
PLATTSMOUTH    CLEAR     52  40  64 S13       29.57F
WAHOO          FAIR      52  39  62 SW14      29.54F
$$




USA.gov is the U.S. government's official web portal to all federal, state and local government web resources and services.